Flag for Germany Weather past 2 weeks in Bad Kreuznach, Rhineland-Palatinate, Germany

Now
64 °F

Overcast.


Feels Like: 64 °F
Forecast: 54 / 71 °F
Wind: 1 mph from North

Location: Wiesbaden Airport

Current Time: Sep 2, 2014 at 9:17:10 PM

Latest Report: Sep 2, 2014 at 8:58 PM


Visibility: N/A

Pressure: 30.19 "Hg

Humidity: 78%

Dew point: 57 °F

Location of Bad KreuznachLocation

Historic Weather in Bad Kreuznach — Graph

°F

Bad Kreuznach temperature yesterday

Maximum temperature yesterday: 66 °F (at 1:58 PM)
Minimum temperature yesterday: 52 °F (at 4:58 AM)
Average temperature yesterday: 60 °F

Past Weeks' High & Low Weather Summary

 TemperatureHumidityPressure
High75 °F (Aug 29, 4:58 PM)100% (Aug 19, 2:58 AM)30.17 "Hg (Aug 19, 2:58 AM)
Low45 °F (Aug 22, 6:58 AM)43% (Aug 21, 6:58 PM)29.66 "Hg (Aug 26, 8:04 AM)
Average59 °F77%29.99 "Hg
* Reported Aug 18 7:58 PM — Sep 2 7:58 PM, Bad Kreuznach, Weather by CustomWeather, © 2014

Note: Actual official high and low records may vary slightly from our data, if they occured in-between our weather recording intervals... More about our weather records

Advertising

Bad Kreuznach weather history for previous 24 hours

 ConditionsComfort  
Time TempWeatherWind HumidityBarometerVisibility
7:58 PM
Sep 2
66 °FOvercast.No wind68%30.17 "HgN/A
6:58 PM66 °FPartly sunny.2 mph68%30.16 "HgN/A
5:58 PM67 °FOvercast.3 mph68%30.16 "HgN/A
4:58 PM67 °FPartly sunny.6 mph68%30.16 "HgN/A
3:58 PM66 °FPartly sunny.13 mph68%30.16 "HgN/A
2:58 PM70 °FMore clouds than sun.5 mph50%30.16 "HgN/A
1:58 PM69 °FPartly sunny.9 mph55%30.16 "HgN/A
12:58 PM68 °FPartly sunny.6 mph56%30.16 "HgN/A
11:58 AM66 °FPartly sunny.7 mph60%30.17 "HgN/A
10:58 AM64 °FMore clouds than sun.7 mph73%30.17 "HgN/A
9:58 AM63 °FPartly sunny.6 mph77%30.16 "HgN/A
8:58 AM58 °FOvercast.2 mph88%30.16 "HgN/A
7:58 AM55 °FOvercast.2 mph93%30.16 "HgN/A
6:58 AM54 °FOvercast.2 mph92%30.15 "HgN/A
5:58 AM54 °FOvercast.2 mph91%30.15 "HgN/A
4:58 AM54 °FClear.6 mph92%30.14 "HgN/A
3:58 AM54 °FPassing clouds.No wind93%30.15 "HgN/A
2:58 AM56 °FPassing clouds.No wind89%30.15 "HgN/A
1:58 AM57 °FPassing clouds.2 mph89%30.15 "HgN/A
12:58 AM57 °FOvercast.No wind88%30.15 "HgN/A
11:58 PM
Sep 1
57 °FOvercast.2 mph88%30.15 "HgN/A
10:58 PM59 °FMostly cloudy.5 mph82%30.16 "HgN/A
9:58 PM61 °FMostly cloudy.2 mph77%30.16 "HgN/A
Weather by CustomWeather, © 2014

See weather overviewHow to use our weather pages